contact:dominique.lefevre@mio.osupytheas.fr, maurice.libes@osupytheas.fr, didier.mallarino@osupytheas.fr
Project:EMSO http://www.emso-fr.org/EMSO-France
Depth: 2436.0 m
Title:EMSO Ligure Ouest : Data MII capteur MICROCAT
DateTime_Computer,Latitude,Longitude,Temperature,Conductivity,Pressure,DateTime_Instrument
DateTime_Computer,Latitude,Longitude,degC,S m-1,dbar,DateTime_Instrument
2019-06-02T00:01:45Z,42.805,6.029,13.2964,4.59965,2469.704,2019-6-02T02:02:00Z
2019-06-02T00:04:48Z,42.805,6.029,13.2957,4.59966,2469.704,2019-6-02T02:05:03Z
2019-06-02T00:07:51Z,42.805,6.029,13.2964,4.59969,2469.667,2019-6-02T02:08:06Z
2019-06-02T00:10:53Z,42.805,6.029,13.2976,4.59999,2469.657,2019-6-02T02:11:09Z
2019-06-02T00:13:56Z,42.805,6.029,13.2973,4.59994,2469.69,2019-6-02T02:14:12Z
2019-06-02T00:16:59Z,42.805,6.029,13.2964,4.59979,2469.667,2019-6-02T02:17:14Z
2019-06-02T00:20:02Z,42.805,6.029,13.2958,4.59967,2469.68,2019-6-02T02:20:17Z
2019-06-02T00:23:05Z,42.805,6.029,13.2964,4.59970,2469.68,2019-6-02T02:23:20Z
2019-06-02T00:26:08Z,42.805,6.029,13.2966,4.59986,2469.704,2019-6-02T02:26:23Z
2019-06-02T00:29:11Z,42.805,6.029,13.2969,4.59981,2469.667,2019-6-02T02:29:26Z
2019-06-02T00:32:14Z,42.805,6.029,13.2961,4.59973,2469.69,2019-6-02T02:32:29Z
2019-06-02T00:35:17Z,42.805,6.029,13.2965,4.59971,2469.667,2019-6-02T02:35:32Z
2019-06-02T00:38:20Z,42.805,6.029,13.2965,4.59970,2469.68,2019-6-02T02:38:35Z
2019-06-02T00:41:23Z,42.805,6.029,13.2968,4.59988,2469.68,2019-6-02T02:41:38Z
2019-06-02T00:44:26Z,42.805,6.029,13.2968,4.59994,2469.68,2019-6-02T02:44:41Z
2019-06-02T00:47:29Z,42.805,6.029,13.2976,4.59998,2469.713,2019-6-02T02:47:44Z
2019-06-02T00:50:32Z,42.805,6.029,13.2979,4.59994,2469.667,2019-6-02T02:50:47Z
2019-06-02T00:53:35Z,42.805,6.029,13.2974,4.60001,2469.69,2019-6-02T02:53:50Z
2019-06-02T00:56:38Z,42.805,6.029,13.2968,4.59993,2469.667,2019-6-02T02:56:53Z
2019-06-02T00:59:41Z,42.805,6.029,13.2974,4.60000,2469.69,2019-6-02T02:59:56Z
2019-06-02T01:02:44Z,42.805,6.029,13.2973,4.59999,2469.643,2019-6-02T03:02:59Z
2019-06-02T01:05:47Z,42.805,6.029,13.2973,4.60002,2469.667,2019-6-02T03:06:02Z
2019-06-02T01:08:49Z,42.805,6.029,13.2986,4.59998,2469.643,2019-6-02T03:09:05Z
2019-06-02T01:11:52Z,42.805,6.029,13.2976,4.59999,2469.69,2019-6-02T03:12:07Z
2019-06-02T01:14:55Z,42.805,6.029,13.2966,4.59982,2469.704,2019-6-02T03:15:10Z
2019-06-02T01:17:58Z,42.805,6.029,13.2967,4.59981,2469.657,2019-6-02T03:18:13Z
2019-06-02T01:21:01Z,42.805,6.029,13.2964,4.59984,2469.667,2019-6-02T03:21:16Z
2019-06-02T01:24:04Z,42.805,6.029,13.2969,4.59978,2469.667,2019-6-02T03:24:19Z
2019-06-02T01:27:07Z,42.805,6.029,13.2961,4.59991,2469.667,2019-6-02T03:27:22Z
2019-06-02T01:30:10Z,42.805,6.029,13.2978,4.59991,2469.68,2019-6-02T03:30:25Z
2019-06-02T01:33:13Z,42.805,6.029,13.2961,4.59983,2469.68,2019-6-02T03:33:28Z
2019-06-02T01:36:16Z,42.805,6.029,13.2968,4.59986,2469.667,2019-6-02T03:36:31Z
2019-06-02T01:39:19Z,42.805,6.029,13.2975,4.59991,2469.667,2019-6-02T03:39:34Z
2019-06-02T01:42:22Z,42.805,6.029,13.2968,4.59999,2469.69,2019-6-02T03:42:37Z
2019-06-02T01:45:25Z,42.805,6.029,13.2968,4.59995,2469.643,2019-6-02T03:45:40Z
2019-06-02T01:48:28Z,42.805,6.029,13.2957,4.59967,2469.704,2019-6-02T03:48:43Z
2019-06-02T01:51:31Z,42.805,6.029,13.2961,4.59972,2469.667,2019-6-02T03:51:46Z
2019-06-02T01:54:34Z,42.805,6.029,13.2971,4.59986,2469.704,2019-6-02T03:54:49Z
2019-06-02T01:57:37Z,42.805,6.029,13.2977,4.60001,2469.68,2019-6-02T03:57:52Z
2019-06-02T02:00:39Z,42.805,6.029,13.2971,4.59994,2469.704,2019-6-02T04:00:55Z
2019-06-02T02:03:42Z,42.805,6.029,13.2963,4.59999,2469.667,2019-6-02T04:03:58Z
2019-06-02T02:06:45Z,42.805,6.029,13.2962,4.59989,2469.727,2019-6-02T04:07:00Z
2019-06-02T02:09:48Z,42.805,6.029,13.2967,4.59980,2469.667,2019-6-02T04:10:03Z
2019-06-02T02:12:51Z,42.805,6.029,13.2966,4.59971,2469.713,2019-6-02T04:13:06Z
2019-06-02T02:15:54Z,42.805,6.029,13.2965,4.59973,2469.68,2019-6-02T04:16:09Z
2019-06-02T02:18:57Z,42.805,6.029,13.2961,4.59981,2469.704,2019-6-02T04:19:12Z
2019-06-02T02:22:00Z,42.805,6.029,13.2969,4.59973,2469.704,2019-6-02T04:22:15Z
2019-06-02T02:25:03Z,42.805,6.029,13.2966,4.59981,2469.704,2019-6-02T04:25:18Z
2019-06-02T02:28:06Z,42.805,6.029,13.2963,4.59979,2469.69,2019-6-02T04:28:21Z
2019-06-02T02:31:09Z,42.805,6.029,13.2967,4.59983,2469.727,2019-6-02T04:31:24Z
2019-06-02T02:34:12Z,42.805,6.029,13.2968,4.59988,2469.704,2019-6-02T04:34:27Z
2019-06-02T02:37:15Z,42.805,6.029,13.2967,4.59995,2469.75,2019-6-02T04:37:30Z
2019-06-02T02:40:18Z,42.805,6.029,13.2970,4.59973,2469.727,2019-6-02T04:40:33Z
2019-06-02T02:43:21Z,42.805,6.029,13.2957,4.59966,2469.699,2019-6-02T04:43:36Z
2019-06-02T02:46:24Z,42.805,6.029,13.2955,4.59968,2469.676,2019-6-02T04:46:39Z
2019-06-02T02:49:27Z,42.805,6.029,13.2964,4.59964,2469.727,2019-6-02T04:49:42Z
2019-06-02T02:52:30Z,42.805,6.029,13.2958,4.59971,2469.69,2019-6-02T04:52:45Z
2019-06-02T02:55:32Z,42.805,6.029,13.2962,4.59966,2469.727,2019-6-02T04:55:48Z
2019-06-02T02:58:35Z,42.805,6.029,13.2978,4.59999,2469.713,2019-6-02T04:58:51Z
2019-06-02T03:01:38Z,42.805,6.029,13.2976,4.59990,2469.727,2019-6-02T05:01:53Z
2019-06-02T03:04:41Z,42.805,6.029,13.2960,4.59983,2469.713,2019-6-02T05:04:56Z
2019-06-02T03:07:44Z,42.805,6.029,13.2964,4.59984,2469.727,2019-6-02T05:07:59Z
2019-06-02T03:10:47Z,42.805,6.029,13.2968,4.59994,2469.727,2019-6-02T05:11:02Z
2019-06-02T03:13:50Z,42.805,6.029,13.2967,4.59994,2469.75,2019-6-02T05:14:05Z
2019-06-02T03:16:53Z,42.805,6.029,13.2971,4.59990,2469.713,2019-6-02T05:17:08Z
2019-06-02T03:19:56Z,42.805,6.029,13.2961,4.59983,2469.75,2019-6-02T05:20:11Z
2019-06-02T03:22:59Z,42.805,6.029,13.2964,4.59989,2469.737,2019-6-02T05:23:14Z
2019-06-02T03:26:02Z,42.805,6.029,13.2957,4.59975,2469.737,2019-6-02T05:26:17Z
2019-06-02T03:29:05Z,42.805,6.029,13.2961,4.59971,2469.75,2019-6-02T05:29:20Z
2019-06-02T03:32:08Z,42.805,6.029,13.2961,4.59984,2469.75,2019-6-02T05:32:23Z
2019-06-02T03:35:11Z,42.805,6.029,13.2971,4.59989,2469.737,2019-6-02T05:35:26Z
2019-06-02T03:38:14Z,42.805,6.029,13.2971,4.59985,2469.773,2019-6-02T05:38:29Z
2019-06-02T03:41:17Z,42.805,6.029,13.2961,4.59994,2469.75,2019-6-02T05:41:32Z
2019-06-02T03:44:20Z,42.805,6.029,13.2964,4.59999,2469.773,2019-6-02T05:44:35Z
2019-06-02T03:47:22Z,42.805,6.029,13.2963,4.59971,2469.76,2019-6-02T05:47:38Z
2019-06-02T03:50:25Z,42.805,6.029,13.2971,4.59979,2469.783,2019-6-02T05:50:41Z
2019-06-02T03:53:28Z,42.805,6.029,13.2961,4.59969,2469.75,2019-6-02T05:53:43Z
2019-06-02T03:56:31Z,42.805,6.029,13.2963,4.59972,2469.76,2019-6-02T05:56:46Z
2019-06-02T03:59:34Z,42.805,6.029,13.2961,4.59982,2469.76,2019-6-02T05:59:49Z
2019-06-02T04:02:37Z,42.805,6.029,13.2972,4.59992,2469.773,2019-6-02T06:02:52Z
2019-06-02T04:05:40Z,42.805,6.029,13.2981,4.60006,2469.737,2019-6-02T06:05:55Z
2019-06-02T04:08:43Z,42.805,6.029,13.2968,4.59997,2469.783,2019-6-02T06:08:58Z
2019-06-02T04:11:46Z,42.805,6.029,13.2971,4.60011,2469.797,2019-6-02T06:12:01Z
2019-06-02T04:14:49Z,42.805,6.029,13.2961,4.59981,2469.797,2019-6-02T06:15:04Z
2019-06-02T04:17:52Z,42.805,6.029,13.2964,4.59984,2469.773,2019-6-02T06:18:07Z
2019-06-02T04:20:55Z,42.805,6.029,13.2964,4.59994,2469.783,2019-6-02T06:21:10Z
2019-06-02T04:23:58Z,42.805,6.029,13.2972,4.59998,2469.821,2019-6-02T06:24:13Z
2019-06-02T04:27:01Z,42.805,6.029,13.2967,4.59998,2469.76,2019-6-02T06:27:16Z
2019-06-02T04:30:04Z,42.805,6.029,13.2977,4.60001,2469.783,2019-6-02T06:30:19Z
2019-06-02T04:33:07Z,42.805,6.029,13.2968,4.59994,2469.83,2019-6-02T06:33:22Z
2019-06-02T04:36:10Z,42.805,6.029,13.2965,4.59990,2469.769,2019-6-02T06:36:25Z
2019-06-02T04:39:13Z,42.805,6.029,13.2972,4.60003,2469.821,2019-6-02T06:39:28Z
2019-06-02T04:42:15Z,42.805,6.029,13.2967,4.59993,2469.797,2019-6-02T06:42:31Z
2019-06-02T04:45:18Z,42.805,6.029,13.2961,4.59979,2469.821,2019-6-02T06:45:34Z
2019-06-02T04:48:21Z,42.805,6.029,13.2967,4.60005,2469.83,2019-6-02T06:48:36Z
2019-06-02T04:51:24Z,42.805,6.029,13.2962,4.59975,2469.821,2019-6-02T06:51:39Z
2019-06-02T04:54:27Z,42.805,6.029,13.2973,4.59982,2469.783,2019-6-02T06:54:42Z
2019-06-02T04:57:30Z,42.805,6.029,13.2967,4.59978,2469.783,2019-6-02T06:57:45Z
2019-06-02T05:00:33Z,42.805,6.029,13.2960,4.59979,2469.821,2019-6-02T07:00:48Z
2019-06-02T05:03:36Z,42.805,6.029,13.2960,4.59982,2469.821,2019-6-02T07:03:51Z
2019-06-02T05:06:39Z,42.805,6.029,13.2962,4.59971,2469.783,2019-6-02T07:06:54Z
2019-06-02T05:09:42Z,42.805,6.029,13.2963,4.59984,2469.821,2019-6-02T07:09:57Z
2019-06-02T05:12:45Z,42.805,6.029,13.2959,4.59991,2469.806,2019-6-02T07:13:00Z
2019-06-02T05:15:48Z,42.805,6.029,13.2964,4.59973,2469.844,2019-6-02T07:16:03Z
2019-06-02T05:18:51Z,42.805,6.029,13.2967,4.59974,2469.806,2019-6-02T07:19:06Z
2019-06-02T05:21:54Z,42.805,6.029,13.2963,4.59981,2469.844,2019-6-02T07:22:09Z
2019-06-02T05:24:57Z,42.805,6.029,13.2961,4.59969,2469.83,2019-6-02T07:25:12Z
2019-06-02T05:28:00Z,42.805,6.029,13.2962,4.59970,2469.83,2019-6-02T07:28:15Z
2019-06-02T05:31:03Z,42.805,6.029,13.2960,4.59985,2469.806,2019-6-02T07:31:18Z
2019-06-02T05:34:06Z,42.805,6.029,13.2958,4.59979,2469.821,2019-6-02T07:34:21Z
2019-06-02T05:37:08Z,42.805,6.029,13.2970,4.59981,2469.783,2019-6-02T07:37:24Z
2019-06-02T05:40:11Z,42.805,6.029,13.2970,4.59983,2469.83,2019-6-02T07:40:27Z
2019-06-02T05:43:14Z,42.805,6.029,13.2966,4.59982,2469.844,2019-6-02T07:43:29Z
2019-06-02T05:46:17Z,42.805,6.029,13.2960,4.59975,2469.853,2019-6-02T07:46:32Z
2019-06-02T05:49:20Z,42.805,6.029,13.2967,4.60004,2469.83,2019-6-02T07:49:35Z
2019-06-02T05:52:23Z,42.805,6.029,13.2968,4.60002,2469.821,2019-6-02T07:52:38Z
2019-06-02T05:55:26Z,42.805,6.029,13.2962,4.59995,2469.806,2019-6-02T07:55:41Z
2019-06-02T05:58:29Z,42.805,6.029,13.2959,4.59976,2469.867,2019-6-02T07:58:44Z
2019-06-02T06:01:32Z,42.805,6.029,13.2965,4.59975,2469.83,2019-6-02T08:01:47Z
2019-06-02T06:04:35Z,42.805,6.029,13.2959,4.59981,2469.853,2019-6-02T08:04:50Z
2019-06-02T06:07:38Z,42.805,6.029,13.2964,4.59974,2469.83,2019-6-02T08:07:53Z
2019-06-02T06:10:41Z,42.805,6.029,13.2958,4.59973,2469.853,2019-6-02T08:10:56Z
2019-06-02T06:13:44Z,42.805,6.029,13.2957,4.59969,2469.867,2019-6-02T08:13:59Z
2019-06-02T06:16:47Z,42.805,6.029,13.2960,4.59968,2469.844,2019-6-02T08:17:02Z
2019-06-02T06:19:50Z,42.805,6.029,13.2964,4.59981,2469.853,2019-6-02T08:20:05Z
2019-06-02T06:22:53Z,42.805,6.029,13.2964,4.59983,2469.844,2019-6-02T08:23:08Z
2019-06-02T06:25:56Z,42.805,6.029,13.2957,4.59979,2469.858,2019-6-02T08:26:11Z
2019-06-02T06:28:58Z,42.805,6.029,13.2957,4.59988,2469.83,2019-6-02T08:29:14Z
2019-06-02T06:32:01Z,42.805,6.029,13.2960,4.59973,2469.853,2019-6-02T08:32:17Z
2019-06-02T06:35:04Z,42.805,6.029,13.2962,4.59978,2469.83,2019-6-02T08:35:19Z
2019-06-02T06:38:07Z,42.805,6.029,13.2965,4.59973,2469.806,2019-6-02T08:38:22Z
2019-06-02T06:41:10Z,42.805,6.029,13.2967,4.59992,2469.821,2019-6-02T08:41:25Z
2019-06-02T06:44:13Z,42.805,6.029,13.2960,4.59980,2469.806,2019-6-02T08:44:28Z
2019-06-02T06:47:16Z,42.805,6.029,13.2964,4.59978,2469.821,2019-6-02T08:47:31Z
2019-06-02T06:50:19Z,42.805,6.029,13.2956,4.59981,2469.83,2019-6-02T08:50:34Z
2019-06-02T06:53:22Z,42.805,6.029,13.2959,4.59983,2469.844,2019-6-02T08:53:37Z
2019-06-02T06:56:25Z,42.805,6.029,13.2957,4.59979,2469.821,2019-6-02T08:56:40Z
2019-06-02T06:59:28Z,42.805,6.029,13.2964,4.59966,2469.821,2019-6-02T08:59:43Z
2019-06-02T07:02:31Z,42.805,6.029,13.2959,4.59978,2469.806,2019-6-02T09:02:46Z
2019-06-02T07:05:34Z,42.805,6.029,13.2974,4.59994,2469.806,2019-6-02T09:05:49Z
2019-06-02T07:08:37Z,42.805,6.029,13.2955,4.59979,2469.83,2019-6-02T09:08:52Z
2019-06-02T07:11:40Z,42.805,6.029,13.2958,4.59979,2469.806,2019-6-02T09:11:55Z
2019-06-02T07:14:43Z,42.805,6.029,13.2957,4.59979,2469.83,2019-6-02T09:14:58Z
2019-06-02T07:17:46Z,42.805,6.029,13.2968,4.59983,2469.844,2019-6-02T09:18:01Z
2019-06-02T07:20:49Z,42.805,6.029,13.2964,4.59976,2469.83,2019-6-02T09:21:04Z
2019-06-02T07:23:51Z,42.805,6.029,13.2970,4.59988,2469.797,2019-6-02T09:24:07Z
2019-06-02T07:26:54Z,42.805,6.029,13.2967,4.59979,2469.821,2019-6-02T09:27:10Z
2019-06-02T07:29:57Z,42.805,6.029,13.2960,4.59972,2469.821,2019-6-02T09:30:12Z
2019-06-02T07:33:00Z,42.805,6.029,13.2963,4.59982,2469.806,2019-6-02T09:33:15Z
2019-06-02T07:36:03Z,42.805,6.029,13.2959,4.59968,2469.821,2019-6-02T09:36:18Z
2019-06-02T07:39:06Z,42.805,6.029,13.2963,4.59982,2469.821,2019-6-02T09:39:21Z
2019-06-02T07:42:09Z,42.805,6.029,13.2962,4.59976,2469.806,2019-6-02T09:42:24Z
2019-06-02T07:45:12Z,42.805,6.029,13.2962,4.59976,2469.821,2019-6-02T09:45:27Z
2019-06-02T07:48:15Z,42.805,6.029,13.2961,4.59976,2469.797,2019-6-02T09:48:30Z
2019-06-02T07:51:18Z,42.805,6.029,13.2956,4.59972,2469.821,2019-6-02T09:51:33Z
2019-06-02T07:54:21Z,42.805,6.029,13.2965,4.59971,2469.806,2019-6-02T09:54:36Z
2019-06-02T07:57:24Z,42.805,6.029,13.2961,4.59968,2469.783,2019-6-02T09:57:39Z
2019-06-02T08:00:27Z,42.805,6.029,13.2961,4.59986,2469.783,2019-6-02T10:00:42Z
2019-06-02T08:03:30Z,42.805,6.029,13.2962,4.59979,2469.76,2019-6-02T10:03:45Z
2019-06-02T08:06:33Z,42.805,6.029,13.2959,4.59975,2469.783,2019-6-02T10:06:48Z
2019-06-02T08:09:36Z,42.805,6.029,13.2959,4.59975,2469.76,2019-6-02T10:09:51Z
2019-06-02T08:12:39Z,42.805,6.029,13.2968,4.59978,2469.76,2019-6-02T10:12:54Z
2019-06-02T08:15:42Z,42.805,6.029,13.2961,4.59973,2469.806,2019-6-02T10:15:57Z
2019-06-02T08:18:44Z,42.805,6.029,13.2964,4.59976,2469.797,2019-6-02T10:19:00Z
2019-06-02T08:21:47Z,42.805,6.029,13.2962,4.59975,2469.806,2019-6-02T10:22:03Z
2019-06-02T08:24:50Z,42.805,6.029,13.2961,4.59980,2469.783,2019-6-02T10:25:06Z
2019-06-02T08:27:53Z,42.805,6.029,13.2957,4.59969,2469.806,2019-6-02T10:28:08Z
2019-06-02T08:30:56Z,42.805,6.029,13.2963,4.59968,2469.773,2019-6-02T10:31:11Z
2019-06-02T08:33:59Z,42.805,6.029,13.2970,4.59983,2469.773,2019-6-02T10:34:14Z
2019-06-02T08:37:02Z,42.805,6.029,13.2963,4.59988,2469.783,2019-6-02T10:37:17Z
2019-06-02T08:40:05Z,42.805,6.029,13.2975,4.59994,2469.76,2019-6-02T10:40:20Z
2019-06-02T08:43:08Z,42.805,6.029,13.2969,4.59994,2469.773,2019-6-02T10:43:23Z
2019-06-02T08:46:11Z,42.805,6.029,13.2961,4.59976,2469.783,2019-6-02T10:46:26Z
2019-06-02T08:49:14Z,42.805,6.029,13.2965,4.59983,2469.773,2019-6-02T10:49:29Z
2019-06-02T08:52:17Z,42.805,6.029,13.2967,4.59980,2469.773,2019-6-02T10:52:32Z
2019-06-02T08:55:20Z,42.805,6.029,13.2965,4.60019,2469.76,2019-6-02T10:55:35Z
2019-06-02T08:58:23Z,42.805,6.029,13.2967,4.60001,2469.773,2019-6-02T10:58:38Z
2019-06-02T09:01:26Z,42.805,6.029,13.2961,4.59976,2469.746,2019-6-02T11:01:41Z
2019-06-02T09:04:29Z,42.805,6.029,13.2958,4.59976,2469.76,2019-6-02T11:04:44Z
2019-06-02T09:07:32Z,42.805,6.029,13.2958,4.59976,2469.737,2019-6-02T11:07:47Z
2019-06-02T09:10:35Z,42.805,6.029,13.2963,4.59974,2469.76,2019-6-02T11:10:50Z
2019-06-02T09:13:38Z,42.805,6.029,13.2965,4.59985,2469.75,2019-6-02T11:13:53Z
2019-06-02T09:16:41Z,42.805,6.029,13.2959,4.59973,2469.75,2019-6-02T11:16:56Z
2019-06-02T09:19:43Z,42.805,6.029,13.2963,4.59992,2469.737,2019-6-02T11:19:59Z
2019-06-02T09:22:46Z,42.805,6.029,13.2966,4.59982,2469.737,2019-6-02T11:23:02Z
2019-06-02T09:25:49Z,42.805,6.029,13.2964,4.59984,2469.737,2019-6-02T11:26:04Z
2019-06-02T09:28:52Z,42.805,6.029,13.2979,4.60010,2469.737,2019-6-02T11:29:07Z
2019-06-02T09:31:55Z,42.805,6.029,13.2959,4.59993,2469.75,2019-6-02T11:32:10Z
2019-06-02T09:34:58Z,42.805,6.029,13.2959,4.59979,2469.737,2019-6-02T11:35:13Z
2019-06-02T09:38:01Z,42.805,6.029,13.2963,4.59972,2469.737,2019-6-02T11:38:16Z
2019-06-02T09:41:04Z,42.805,6.029,13.2961,4.59969,2469.713,2019-6-02T11:41:19Z
2019-06-02T09:44:07Z,42.805,6.029,13.2962,4.59976,2469.713,2019-6-02T11:44:22Z
2019-06-02T09:47:10Z,42.805,6.029,13.2964,4.59987,2469.69,2019-6-02T11:47:25Z
2019-06-02T09:50:13Z,42.805,6.029,13.2962,4.59976,2469.713,2019-6-02T11:50:28Z
2019-06-02T09:53:16Z,42.805,6.029,13.2965,4.59983,2469.713,2019-6-02T11:53:31Z
2019-06-02T09:56:19Z,42.805,6.029,13.2968,4.59981,2469.704,2019-6-02T11:56:34Z
2019-06-02T09:59:22Z,42.805,6.029,13.2965,4.60000,2469.713,2019-6-02T11:59:37Z
2019-06-02T10:02:25Z,42.805,6.029,13.2967,4.59987,2469.727,2019-6-02T12:02:40Z
2019-06-02T10:05:28Z,42.805,6.029,13.2957,4.59968,2469.713,2019-6-02T12:05:43Z
2019-06-02T10:08:31Z,42.805,6.029,13.2957,4.59971,2469.727,2019-6-02T12:08:46Z
2019-06-02T10:11:34Z,42.805,6.029,13.2958,4.59970,2469.727,2019-6-02T12:11:49Z
2019-06-02T10:14:37Z,42.805,6.029,13.2963,4.59983,2469.713,2019-6-02T12:14:52Z
2019-06-02T10:17:39Z,42.805,6.029,13.2958,4.59973,2469.727,2019-6-02T12:17:55Z
2019-06-02T10:20:42Z,42.805,6.029,13.2962,4.59977,2469.69,2019-6-02T12:20:58Z
2019-06-02T10:23:45Z,42.805,6.029,13.2967,4.59991,2469.704,2019-6-02T12:24:01Z
2019-06-02T10:26:48Z,42.805,6.029,13.2971,4.59992,2469.69,2019-6-02T12:27:03Z
2019-06-02T10:29:51Z,42.805,6.029,13.2959,4.60003,2469.713,2019-6-02T12:30:06Z
2019-06-02T10:32:54Z,42.805,6.029,13.2967,4.60000,2469.737,2019-6-02T12:33:09Z
2019-06-02T10:35:57Z,42.805,6.029,13.2967,4.59981,2469.69,2019-6-02T12:36:12Z
2019-06-02T10:39:00Z,42.805,6.029,13.2961,4.59986,2469.704,2019-6-02T12:39:15Z
2019-06-02T10:42:03Z,42.805,6.029,13.2961,4.59979,2469.69,2019-6-02T12:42:18Z
2019-06-02T10:45:06Z,42.805,6.029,13.2964,4.59980,2469.69,2019-6-02T12:45:21Z
2019-06-02T10:48:09Z,42.805,6.029,13.2961,4.59983,2469.667,2019-6-02T12:48:24Z
2019-06-02T10:51:12Z,42.805,6.029,13.2962,4.59981,2469.718,2019-6-02T12:51:27Z
2019-06-02T10:54:15Z,42.805,6.029,13.2978,4.59973,2469.667,2019-6-02T12:54:30Z
2019-06-02T10:57:18Z,42.805,6.029,13.2974,4.59992,2469.704,2019-6-02T12:57:33Z
2019-06-02T11:00:21Z,42.805,6.029,13.2959,4.59967,2469.704,2019-6-02T13:00:36Z
2019-06-02T11:03:24Z,42.805,6.029,13.2958,4.59971,2469.68,2019-6-02T13:03:39Z
2019-06-02T11:06:27Z,42.805,6.029,13.2967,4.59997,2469.68,2019-6-02T13:06:42Z
2019-06-02T11:09:30Z,42.805,6.029,13.2981,4.59978,2469.643,2019-6-02T13:09:45Z
2019-06-02T11:12:33Z,42.805,6.029,13.2957,4.59973,2469.68,2019-6-02T13:12:48Z
2019-06-02T11:15:36Z,42.805,6.029,13.2965,4.59977,2469.704,2019-6-02T13:15:51Z
2019-06-02T11:18:38Z,42.805,6.029,13.2965,4.59992,2469.643,2019-6-02T13:18:54Z
2019-06-02T11:21:41Z,42.805,6.029,13.2958,4.59992,2469.657,2019-6-02T13:21:57Z
2019-06-02T11:24:44Z,42.805,6.029,13.2968,4.59999,2469.62,2019-6-02T13:25:00Z
2019-06-02T11:27:47Z,42.805,6.029,13.2962,4.59976,2469.68,2019-6-02T13:28:02Z
2019-06-02T11:30:50Z,42.805,6.029,13.2963,4.59979,2469.657,2019-6-02T13:31:05Z
2019-06-02T11:33:53Z,42.805,6.029,13.2958,4.59973,2469.62,2019-6-02T13:34:08Z
2019-06-02T11:36:56Z,42.805,6.029,13.2964,4.59985,2469.643,2019-6-02T13:37:11Z
2019-06-02T11:39:59Z,42.805,6.029,13.2966,4.59984,2469.657,2019-6-02T13:40:14Z
2019-06-02T11:43:02Z,42.805,6.029,13.2964,4.59987,2469.704,2019-6-02T13:43:17Z
2019-06-02T11:46:05Z,42.805,6.029,13.2962,4.59989,2469.657,2019-6-02T13:46:20Z
2019-06-02T11:49:08Z,42.805,6.029,13.2961,4.59969,2469.643,2019-6-02T13:49:23Z
2019-06-02T11:52:11Z,42.805,6.029,13.2970,4.59995,2469.68,2019-6-02T13:52:26Z
2019-06-02T11:55:14Z,42.805,6.029,13.2961,4.59978,2469.657,2019-6-02T13:55:29Z
2019-06-02T11:58:17Z,42.805,6.029,13.2970,4.59981,2469.643,2019-6-02T13:58:32Z
2019-06-02T12:01:20Z,42.805,6.029,13.2961,4.59975,2469.643,2019-6-02T14:01:35Z
2019-06-02T12:04:23Z,42.805,6.029,13.2967,4.59987,2469.68,2019-6-02T14:04:38Z
2019-06-02T12:07:26Z,42.805,6.029,13.2963,4.59996,2469.62,2019-6-02T14:07:41Z
2019-06-02T12:10:29Z,42.805,6.029,13.2966,4.59975,2469.667,2019-6-02T14:10:44Z
2019-06-02T12:13:32Z,42.805,6.029,13.2960,4.59973,2469.657,2019-6-02T14:13:47Z
2019-06-02T12:16:34Z,42.805,6.029,13.2962,4.59973,2469.657,2019-6-02T14:16:50Z
2019-06-02T12:19:37Z,42.805,6.029,13.2958,4.59969,2469.643,2019-6-02T14:19:53Z
2019-06-02T12:22:40Z,42.805,6.029,13.2961,4.59971,2469.643,2019-6-02T14:22:56Z
2019-06-02T12:25:43Z,42.805,6.029,13.2971,4.59998,2469.657,2019-6-02T14:25:58Z
2019-06-02T12:28:46Z,42.805,6.029,13.2982,4.59994,2469.62,2019-6-02T14:29:01Z
2019-06-02T12:31:49Z,42.805,6.029,13.2964,4.59975,2469.657,2019-6-02T14:32:04Z
2019-06-02T12:34:52Z,42.805,6.029,13.2974,4.59991,2469.643,2019-6-02T14:35:07Z
2019-06-02T12:37:55Z,42.805,6.029,13.2982,4.59992,2469.62,2019-6-02T14:38:10Z
2019-06-02T12:40:58Z,42.805,6.029,13.2976,4.60006,2469.62,2019-6-02T14:41:13Z
2019-06-02T12:44:01Z,42.805,6.029,13.2978,4.60003,2469.657,2019-6-02T14:44:16Z
2019-06-02T12:47:04Z,42.805,6.029,13.2979,4.59979,2469.62,2019-6-02T14:47:19Z
2019-06-02T12:50:07Z,42.805,6.029,13.2979,4.60030,2469.643,2019-6-02T14:50:22Z
2019-06-02T12:53:10Z,42.805,6.029,13.2970,4.60006,2469.643,2019-6-02T14:53:25Z
2019-06-02T12:56:13Z,42.805,6.029,13.2976,4.60017,2469.68,2019-6-02T14:56:28Z
2019-06-02T12:59:16Z,42.805,6.029,13.2985,4.60007,2469.62,2019-6-02T14:59:31Z
2019-06-02T13:02:19Z,42.805,6.029,13.2990,4.59995,2469.643,2019-6-02T15:02:34Z
2019-06-02T13:05:22Z,42.805,6.029,13.2991,4.60004,2469.62,2019-6-02T15:05:37Z
2019-06-02T13:08:25Z,42.805,6.029,13.2982,4.59996,2469.62,2019-6-02T15:08:40Z
2019-06-02T13:11:28Z,42.805,6.029,13.2991,4.60039,2469.643,2019-6-02T15:11:43Z
2019-06-02T13:14:31Z,42.805,6.029,13.2988,4.60014,2469.634,2019-6-02T15:14:46Z
2019-06-02T13:17:33Z,42.805,6.029,13.2985,4.60039,2469.657,2019-6-02T15:17:49Z
2019-06-02T13:20:36Z,42.805,6.029,13.3004,4.60009,2469.643,2019-6-02T15:20:52Z
2019-06-02T13:23:39Z,42.805,6.029,13.3003,4.60014,2469.634,2019-6-02T15:23:55Z
2019-06-02T13:26:42Z,42.805,6.029,13.2987,4.60013,2469.62,2019-6-02T15:26:57Z
2019-06-02T13:29:45Z,42.805,6.029,13.2990,4.59990,2469.634,2019-6-02T15:30:00Z
2019-06-02T13:32:48Z,42.805,6.029,13.2966,4.59987,2469.62,2019-6-02T15:33:03Z
2019-06-02T13:35:51Z,42.805,6.029,13.2990,4.60019,2469.657,2019-6-02T15:36:06Z
2019-06-02T13:38:54Z,42.805,6.029,13.2979,4.60019,2469.62,2019-6-02T15:39:09Z
2019-06-02T13:41:57Z,42.805,6.029,13.2984,4.60027,2469.643,2019-6-02T15:42:12Z
2019-06-02T13:45:00Z,42.805,6.029,13.2998,4.60007,2469.704,2019-6-02T15:45:15Z
2019-06-02T13:48:03Z,42.805,6.029,13.2988,4.60029,2469.62,2019-6-02T15:48:18Z
2019-06-02T13:51:06Z,42.805,6.029,13.2974,4.59999,2469.657,2019-6-02T15:51:21Z
2019-06-02T13:54:09Z,42.805,6.029,13.2972,4.60016,2469.667,2019-6-02T15:54:24Z
2019-06-02T13:57:12Z,42.805,6.029,13.2970,4.60003,2469.62,2019-6-02T15:57:27Z
2019-06-02T14:00:15Z,42.805,6.029,13.2974,4.60006,2469.667,2019-6-02T16:00:30Z
2019-06-02T14:03:18Z,42.805,6.029,13.2987,4.60027,2469.667,2019-6-02T16:03:33Z
2019-06-02T14:06:21Z,42.805,6.029,13.2988,4.60019,2469.657,2019-6-02T16:06:36Z
2019-06-02T14:09:24Z,42.805,6.029,13.2957,4.59968,2469.62,2019-6-02T16:09:39Z
2019-06-02T14:12:27Z,42.805,6.029,13.2969,4.59996,2469.68,2019-6-02T16:12:42Z
2019-06-02T14:15:29Z,42.805,6.029,13.2976,4.60011,2469.643,2019-6-02T16:15:45Z
2019-06-02T14:18:32Z,42.805,6.029,13.2991,4.60010,2469.667,2019-6-02T16:18:48Z
2019-06-02T14:21:35Z,42.805,6.029,13.2990,4.60024,2469.68,2019-6-02T16:21:51Z
2019-06-02T14:24:38Z,42.805,6.029,13.2991,4.60028,2469.68,2019-6-02T16:24:53Z
2019-06-02T14:27:41Z,42.805,6.029,13.2976,4.59987,2469.657,2019-6-02T16:27:56Z
2019-06-02T14:30:44Z,42.805,6.029,13.2982,4.60009,2469.68,2019-6-02T16:30:59Z
2019-06-02T14:33:47Z,42.805,6.029,13.2972,4.60006,2469.657,2019-6-02T16:34:02Z
2019-06-02T14:36:50Z,42.805,6.029,13.2969,4.60001,2469.667,2019-6-02T16:37:05Z
2019-06-02T14:39:53Z,42.805,6.029,13.2987,4.60019,2469.68,2019-6-02T16:40:08Z
2019-06-02T14:42:56Z,42.805,6.029,13.2993,4.59981,2469.657,2019-6-02T16:43:11Z
2019-06-02T14:45:59Z,42.805,6.029,13.2962,4.59979,2469.704,2019-6-02T16:46:14Z
2019-06-02T14:49:02Z,42.805,6.029,13.2959,4.59975,2469.704,2019-6-02T16:49:17Z
2019-06-02T14:52:05Z,42.805,6.029,13.2961,4.59970,2469.667,2019-6-02T16:52:20Z
2019-06-02T14:55:08Z,42.805,6.029,13.2959,4.59973,2469.69,2019-6-02T16:55:23Z
2019-06-02T14:58:11Z,42.805,6.029,13.2963,4.59978,2469.69,2019-6-02T16:58:26Z
2019-06-02T15:01:14Z,42.805,6.029,13.2964,4.59999,2469.69,2019-6-02T17:01:29Z
2019-06-02T15:04:17Z,42.805,6.029,13.2968,4.60003,2469.704,2019-6-02T17:04:32Z
2019-06-02T15:07:20Z,42.805,6.029,13.2964,4.60014,2469.704,2019-6-02T17:07:35Z
2019-06-02T15:10:23Z,42.805,6.029,13.2963,4.59994,2469.727,2019-6-02T17:10:38Z
2019-06-02T15:13:25Z,42.805,6.029,13.2973,4.60009,2469.727,2019-6-02T17:13:41Z